Eilat, Israel

10:44 AM IST on December 17, 2017 (GMT +0200)
Eilat

Weather History for LLET - February, 2013

Change the Weather History Date:

Friday, February 8, 2013

  Actual Average Record
Temperature  
Mean Temperature 66 °F -  
Max Temperature 78 °F 72 °F 82 °F (2009)
Min Temperature 54 °F 54 °F 46 °F (1997)
Cooling Degree Days 1    
Growing Degree Days 16 (Base 50)    
Moisture  
Dew Point 45 °F    
Average Humidity 45    
Maximum Humidity 72    
Minimum Humidity 21    
Precipitation  
Precipitation 0.00 in 0.01 in - ()
Sea Level Pressure  
Sea Level Pressure 29.94 in    
Wind  
Wind Speed 6 mph ()    
Max Wind Speed 14 mph    
Max Gust Speed -    
Visibility 6.3 miles    
Events      
Averages and records for this station are not official NWS values.
T = Trace of Precipitation, MM = Missing Value Source: Averaged Metar Reports

Daily Weather History Graph

Daily Weather History Graph

Search for Another Location

Airport or City:

Trip Planner

Search our weather history database for the weather conditions in past years. The results will help you decide how hot, cold, wet, or windy it might be!

Date:

Astronomy

Feb. 08, 2013 Rise Set
Actual Time 6:25 AM IST 5:23 PM IST
Civil Twilight 6:00 AM IST 5:48 PM IST
Nautical Twilight 5:32 AM IST 6:16 PM IST
Astronomical Twilight 5:04 AM IST 6:44 PM IST
Moon 4:32 AM IST (2/8) 3:36 PM IST (2/8)
Length of Visible Light 11h 47m
Length of Day
10h 58m
Waning Crescent, 5% of the Moon is Illuminated
Feb 8
Waning Crescent
Feb 10
New
Feb 17
First Quarter
Feb 25
Full
Mar 4
Last Quarter

Hourly Weather History & Observations

Time (IST) Temp. Dew Point Humidity Pressure Visibility Wind Dir Wind Speed Gust Speed Precip Events Conditions
2:00 AM 56 °F 45 °F 58%  in - NNE 3.5 mph - -  
5:50 AM 57.2 °F 46.4 °F 67% 29.95 in - NNE 10.4 mph - N/A   Clear
6:20 AM 55.4 °F 46.4 °F 72% 29.95 in - NNE 9.2 mph - N/A   Clear
6:50 AM 55.4 °F 46.4 °F 72% 29.98 in 6.2 mi NE 8.1 mph - N/A   Scattered Clouds
7:20 AM 55.4 °F 46.4 °F 72% 29.98 in 6.2 mi NNE 9.2 mph - N/A   Scattered Clouds
7:50 AM 57.2 °F 46.4 °F 67% 29.98 in 6.2 mi NNE 10.4 mph - N/A   Scattered Clouds
8:00 AM 58 °F 45 °F 52%  in - NNE 4.6 mph - -  
8:20 AM 57.2 °F 46.4 °F 67% 29.95 in 6.2 mi NNE 9.2 mph - N/A   Scattered Clouds
8:50 AM 60.8 °F 48.2 °F 63% 29.98 in 6.2 mi North 12.7 mph - N/A   Partly Cloudy
9:20 AM 62.6 °F 48.2 °F 59% 29.95 in 6.2 mi NNE 13.8 mph - N/A   Scattered Clouds
9:50 AM 66.2 °F 46.4 °F 49% 29.95 in 6.2 mi NNE 11.5 mph - N/A   Mostly Cloudy
10:20 AM 68.0 °F 48.2 °F 49% 29.98 in 6.2 mi NE 11.5 mph - N/A   Mostly Cloudy
10:50 AM 68.0 °F 48.2 °F 49% 29.98 in 6.2 mi NNE 12.7 mph - N/A   Scattered Clouds
11:20 AM 69.8 °F 46.4 °F 43% 29.95 in 6.2 mi NNE 10.4 mph - N/A   Scattered Clouds
11:50 AM 73.4 °F 46.4 °F 38% 29.95 in 6.2 mi NNE 9.2 mph - N/A   Partly Cloudy
12:20 PM 73.4 °F 46.4 °F 38% 29.92 in 6.2 mi NE 8.1 mph - N/A   Scattered Clouds
12:50 PM 73.4 °F 44.6 °F 36% 29.92 in 6.2 mi NE 8.1 mph - N/A   Scattered Clouds
1:20 PM 75.2 °F 44.6 °F 34% 29.92 in 6.2 mi NE 5.8 mph - N/A   Scattered Clouds
1:50 PM 75.2 °F 44.6 °F 34% 29.89 in 6.2 mi North 5.8 mph - N/A   Scattered Clouds
2:00 PM 77 °F 45 °F 21%  in - ENE 3.5 mph - -  
2:20 PM 77.0 °F 44.6 °F 32% 29.89 in 6.2 mi Variable 2.3 mph - N/A   Partly Cloudy
2:50 PM 78.8 °F 41.0 °F 26% 29.89 in 6.2 mi South 3.5 mph - N/A   Partly Cloudy
3:20 PM 77.0 °F 39.2 °F 26% 29.89 in 6.2 mi SSE 4.6 mph - N/A   Partly Cloudy
3:50 PM 77.0 °F 41.0 °F 28% 29.89 in - SSE 3.5 mph - N/A   Clear
4:20 PM 77.0 °F 41.0 °F 28% 29.89 in - South 5.8 mph - N/A   Clear
4:50 PM 77.0 °F 39.2 °F 26% 29.89 in - SW 6.9 mph - N/A   Clear
5:20 PM 75.2 °F 39.2 °F 27% 29.89 in - SSW 6.9 mph - N/A   Clear
5:50 PM 73.4 °F 39.2 °F 29% 29.92 in - SW 4.6 mph - N/A   Clear
6:20 PM 73.4 °F 39.2 °F 29% 29.92 in - SW 4.6 mph - N/A   Clear
6:50 PM 69.8 °F 46.4 °F 43% 29.92 in - Variable 1.2 mph - N/A   Clear
7:20 PM 68.0 °F 46.4 °F 46% 29.95 in - Variable 1.2 mph - N/A   Clear
7:50 PM 68.0 °F 46.4 °F 46% 29.95 in - Variable 1.2 mph - N/A   Clear
8:00 PM 67 °F 43 °F 30%  in 9 mi SW 1.2 mph - -  
8:20 PM 68.0 °F 44.6 °F 43% 29.95 in - Variable 1.2 mph - N/A   Clear
8:50 PM 68.0 °F 42.8 °F 40% 29.98 in - Variable 2.3 mph - N/A   Clear
9:20 PM 64.4 °F 50.0 °F 59% 29.98 in - NE 4.6 mph - N/A   Clear
9:50 PM 62.6 °F 50.0 °F 63% 29.98 in - NE 3.5 mph - N/A   Clear
10:20 PM 60.8 °F 50.0 °F 68% 29.98 in - NNE 3.5 mph - N/A   Clear